DAL269 KLAX-KSAN

Flight info

Callsign DAL269
Flight time N/A
Altitude 13000
Route LAXX1 MZB
Aircraft A21N/M-SDE2E3FGHIRWXY/LB1

Departure

Time 2026-04-21 02:46
Airport Los Angeles International Airport (KLAX)

Arrival

Time N/A
Airport San Diego International Airport (KSAN)
Time Latitude Longitude Altitude Speed Heading
2026-04-21 01:57 33.94159 -118.40030 129 ft 0 kts 96°
2026-04-21 02:27 33.94160 -118.40041 124 ft 4 kts 98°
2026-04-21 02:27 33.94163 -118.40071 127 ft 3 kts 91°
2026-04-21 02:27 33.94166 -118.40087 127 ft 2 kts 167°
2026-04-21 02:27 33.94191 -118.40092 126 ft 4 kts 173°
2026-04-21 02:28 33.94205 -118.40094 126 ft 2 kts 173°
2026-04-21 02:28 33.94206 -118.40094 126 ft 0 kts 173°
2026-04-21 02:37 33.94204 -118.40094 126 ft 0 kts 172°
2026-04-21 02:39 33.94127 -118.40084 126 ft 9 kts 173°
2026-04-21 02:39 33.94123 -118.40083 126 ft 0 kts 173°
2026-04-21 02:39 33.94121 -118.40083 126 ft 1 kts 173°
2026-04-21 02:40 33.94068 -118.40074 127 ft 14 kts 172°
2026-04-21 02:40 33.93993 -118.40062 126 ft 9 kts 173°
2026-04-21 02:40 33.93925 -118.40050 126 ft 11 kts 164°
2026-04-21 02:40 33.93881 -118.39982 124 ft 12 kts 89°
2026-04-21 02:41 33.93891 -118.39871 129 ft 15 kts 83°
2026-04-21 02:41 33.93906 -118.39727 127 ft 19 kts 83°
2026-04-21 02:41 33.93924 -118.39550 129 ft 23 kts 84°
2026-04-21 02:41 33.93945 -118.39339 126 ft 28 kts 82°
2026-04-21 02:42 33.93970 -118.39104 126 ft 29 kts 82°
2026-04-21 02:42 33.93993 -118.38884 129 ft 28 kts 83°
2026-04-21 02:42 33.94020 -118.38633 129 ft 32 kts 82°
2026-04-21 02:42 33.94045 -118.38396 127 ft 16 kts 84°
2026-04-21 02:43 33.94047 -118.38353 129 ft 6 kts 83°
2026-04-21 02:43 33.94056 -118.38266 125 ft 17 kts 83°
2026-04-21 02:43 33.94072 -118.38104 129 ft 16 kts 82°
2026-04-21 02:43 33.94077 -118.38037 129 ft 8 kts 96°
2026-04-21 02:44 33.94075 -118.38029 129 ft 0 kts 109°
2026-04-21 02:44 33.94059 -118.38005 126 ft 9 kts 151°
2026-04-21 02:45 33.93991 -118.38009 126 ft 8 kts 227°
2026-04-21 02:45 33.93976 -118.38107 129 ft 19 kts 264°
2026-04-21 02:45 33.93949 -118.38344 129 ft 49 kts 262°
2026-04-21 02:45 33.93878 -118.39058 129 ft 127 kts 263°
2026-04-21 02:46 33.93744 -118.40388 158 ft 186 kts 262°
2026-04-21 02:46 33.93567 -118.42040 522 ft 208 kts 263°
2026-04-21 02:46 33.93351 -118.43774 1465 ft 209 kts 256°
2026-04-21 02:46 33.92805 -118.45398 2500 ft 214 kts 238°
2026-04-21 02:47 33.91808 -118.46850 3118 ft 236 kts 231°
2026-04-21 02:47 33.90733 -118.48394 3942 ft 244 kts 230°
2026-04-21 02:47 33.89663 -118.49986 4947 ft 246 kts 230°
2026-04-21 02:47 33.88614 -118.51575 5915 ft 242 kts 230°
2026-04-21 02:48 33.87554 -118.53188 6600 ft 249 kts 230°
2026-04-21 02:48 33.86477 -118.54843 7287 ft 252 kts 230°
2026-04-21 02:48 33.85398 -118.56513 8057 ft 253 kts 230°
2026-04-21 02:48 33.84313 -118.58193 8829 ft 255 kts 230°
2026-04-21 02:49 33.83220 -118.59887 9639 ft 257 kts 229°
2026-04-21 02:49 33.82122 -118.61589 10369 ft 259 kts 229°
2026-04-21 02:49 33.81016 -118.63303 11080 ft 260 kts 230°
2026-04-21 02:49 33.79905 -118.65025 11800 ft 261 kts 230°
2026-04-21 02:50 33.78786 -118.66758 12424 ft 266 kts 230°
2026-04-21 02:50 33.77604 -118.68551 12741 ft 282 kts 226°
2026-04-21 02:50 33.75965 -118.70011 12667 ft 311 kts 204°
2026-04-21 02:50 33.73745 -118.70630 12439 ft 349 kts 183°
2026-04-21 02:51 33.71234 -118.70195 12197 ft 382 kts 164°
2026-04-21 02:51 33.68763 -118.68779 12016 ft 404 kts 153°
2026-04-21 02:51 33.66316 -118.67024 12075 ft 412 kts 151°
2026-04-21 02:51 33.63911 -118.65250 12829 ft 401 kts 151°
2026-04-21 02:52 33.61560 -118.63505 13616 ft 394 kts 152°
2026-04-21 02:52 33.59254 -118.61758 14366 ft 390 kts 148°
2026-04-21 02:52 33.57170 -118.59589 14374 ft 414 kts 136°
2026-04-21 02:52 33.55432 -118.56688 13834 ft 432 kts 123°
2026-04-21 02:53 33.54196 -118.53448 13336 ft 424 kts 112°
2026-04-21 02:53 33.53509 -118.50071 13107 ft 409 kts 104°
2026-04-21 02:53 33.53018 -118.46806 13073 ft 388 kts 104°
2026-04-21 02:53 33.52559 -118.43707 12993 ft 370 kts 104°
2026-04-21 02:54 33.52124 -118.40732 12874 ft 354 kts 103°
2026-04-21 02:54 33.51712 -118.37881 12707 ft 341 kts 103°
2026-04-21 02:54 33.51316 -118.35120 12499 ft 331 kts 103°
2026-04-21 02:54 33.50935 -118.32441 12299 ft 321 kts 103°
2026-04-21 02:55 33.50569 -118.29847 12150 ft 309 kts 104°
2026-04-21 02:55 33.50243 -118.27446 12586 ft 277 kts 103°
2026-04-21 02:55 33.49976 -118.25317 12910 ft 249 kts 103°
2026-04-21 02:55 33.49740 -118.23345 12977 ft 230 kts 103°
2026-04-21 02:56 33.49529 -118.21494 12745 ft 225 kts 103°
2026-04-21 02:56 33.49179 -118.17377 13064 ft 248 kts 100°
2026-04-21 02:56 33.49018 -118.15262 13401 ft 275 kts 99°